Location: Unspecified
(0.0000°N, 0.0000°E)
Time: 04:58:20
(UTC+00:00)

Courier 1B Rocket - Pass Details

Date: 15 December 2018
Orbit: 920 x 1202 km, 28.2° (Epoch: 16 June)

Event Time Altitude Azimuth Distance (km) Brightness Sun altitude
Rises 08:05:13 0° 284° (WNW) 3,571 7.4 29.6°
Reaches altitude 10° 08:09:23 10° 310° (NW) 2,663 6.9 30.5°
Maximum altitude 08:12:21 13° 338° (NNW) 2,451 6.8 31.2°
Drops below altitude 10° 08:15:24 10° 6° (N) 2,735 7.2 31.9°
Sets 08:19:49 0° 32° (NNE) 3,750 8.1 32.8°
